Location: ?
(35.4214°N, 139.3011°E)
Time: 03:14:51
(UTC+00:00)

ATLAS 2AS CENTAUR R/B - Visible Passes

Search period start: 23 October 2020 00:00
Search period end: 02 November 2020 00:00
Orbit: 939 x 1273 km, 63.7° (Epoch: 19 October)

Date Brightness Start Highest point End Pass type
(mag) Time Alt. Az. Time Alt. Az. Time Alt. Az.
23 Oct 4.8 10:11:57 10° N 10:14:10 13° NNE 10:14:10 13° NNE visible
23 Oct 5.2 12:00:51 10° NNW 12:01:35 13° NNW 12:01:35 13° NNW visible
24 Oct 4.8 11:16:16 10° NNW 11:18:09 17° N 11:18:09 17° N visible
25 Oct 4.5 10:31:50 10° N 10:34:46 19° N 10:34:46 19° N visible
25 Oct 5.4 12:22:02 10° NW 12:22:12 11° NW 12:22:12 11° NW visible
26 Oct 4.5 09:47:40 10° N 09:51:24 16° NNE 09:51:24 16° NNE visible
26 Oct 4.9 11:37:08 10° NNW 11:38:50 18° NNW 11:38:50 18° NNW visible
27 Oct 4.6 09:04:13 10° N 09:06:15 11° NNE 09:08:05 10° NE visible
27 Oct 4.3 10:52:27 10° NNW 10:55:31 24° N 10:55:31 24° N visible
28 Oct 4.0 10:07:55 10° NNW 10:12:15 26° NNE 10:12:15 26° NNE visible
28 Oct 5.1 11:58:30 10° NW 11:59:42 15° NW 11:59:42 15° NW visible
29 Oct 4.1 09:23:36 10° N 09:28:47 20° NE 09:29:02 20° NE visible
29 Oct 4.4 11:13:30 10° NNW 11:16:29 27° NNW 11:16:29 27° NNW visible
30 Oct 4.4 08:39:37 10° N 08:43:09 14° NNE 08:45:54 11° NE visible
30 Oct 3.6 10:28:42 10° NNW 10:33:21 38° N 10:33:21 38° N visible
30 Oct 5.4 12:20:44 10° NW 12:20:48 10° WNW 12:20:48 10° WNW visible
31 Oct 3.4 09:44:05 10° NNW 09:50:18 36° NE 09:50:18 36° NE visible
31 Oct 4.7 11:35:06 10° NW 11:37:46 22° NW 11:37:46 22° NW visible
01 Nov 3.8 08:59:38 10° N 09:05:30 25° NE 09:07:21 22° ENE visible
01 Nov 3.6 10:49:56 10° NW 10:54:49 44° NW 10:54:49 44° NW visible
